[[{"header":{"parameterUnit":"m.s-1","parameterCategory":1,"la1":30.2991,"la2":30.254,"lo1":-89.0895,"lo2":-89.0444,"dy":0.0017,"dx":0.0017,"nx":28,"ny":28,"refTime":"2025-11-23T09:00:00:Z","depth":0,"parameterNumber":2,"parameterNumberName":"U-component_of_WINDS"},"data":[0,0,0,0,0,0,0,0,0,0,0,0,0,0,0,0,0,0,0,0,0,0,0,0,0,0,0,0,0,0,0,0,0,0,0,0,0,0,0,0,0,0,0,0,0,0,0,0,0,0,0,0,0,0,0,0,0,0,-3.7868,-3.7869,0,-3.7964,-3.7965,-3.7966,-3.7976,-3.7976,-3.7975,-3.7974,-3.8072,-3.8075,-3.8079,0,0,0,0,0,0,0,0,0,0,0,0,0,-3.7696,-3.7699,-3.7868,-3.7869,-3.787,-3.7963,-3.7965,-3.7966,-3.7977,-3.7975,-3.7974,-3.7973,-3.8071,-3.8075,-3.8079,0,0,0,0,0,0,0,0,0,0,0,0,0,-3.7779,-3.77,-3.7868,-3.7887,-3.789,-3.7963,-3.7965,-3.7966,-3.7977,-3.7975,-3.7974,-3.7973,-3.8069,-3.8075,-3.808,-3.8141,0,0,-3.8096,-3.8098,0,0,0,0,0,0,0,0,-3.7774,-3.7785,-3.7883,-3.7886,-3.7889,-3.7957,-3.794,-3.8025,-3.7977,-3.7944,-3.7974,-3.7972,-3.8035,-3.8043,-3.8064,-3.8146,-3.815,-3.8096,-3.8099,-3.8102,-3.8103,0,0,0,0,0,0,0,-3.7769,-3.7781,-3.7906,-3.7884,-3.7888,-3.7891,-3.7901,-3.7956,-3.7996,-3.7947,-3.7948,-3.7959,-3.8036,-3.8059,-3.8066,-3.8151,-3.8096,-3.8101,-3.8104,-3.8106,-3.8288,-3.829,0,0,0,0,0,0,-3.7759,-3.7776,-3.7903,-3.7909,-3.7827,-3.7895,-3.7907,-3.7936,-3.7996,-3.8003,-3.796,-3.7959,-3.805,-3.806,-3.807,-3.8145,-3.8102,-3.8107,-3.811,-3.8287,-3.8289,-3.8291,0,0,0,0,0,0,-3.7755,-3.777,-3.7899,-3.7843,-3.786,-3.79,-3.7933,-3.7939,-3.7962,-3.8006,-3.8013,-3.7975,-3.805,-3.8062,-3.8123,-3.8148,-3.8109,-3.8114,-3.8285,-3.8287,-3.829,-3.8295,0,0,0,0,0,0,-3.7751,-3.7769,-3.7792,-3.7843,-3.7863,-3.795,-3.7935,-3.7942,-3.7971,-3.797,-3.8022,-3.8029,-3.805,-3.8115,-3.8128,-3.8155,-3.8118,-3.8283,-3.8286,-3.8289,-3.8293,-3.8298,-3.8302,0,0,0,0,0,-3.7744,-3.779,-3.7793,-3.7808,-3.7892,-3.7952,-3.7963,-3.7985,-3.7973,-3.7996,-3.8025,-3.8028,-3.8144,-3.8121,-3.8136,-3.8165,-3.8281,-3.8285,-3.8289,-3.8291,-3.8297,-3.8302,0,0,0,0,0,0,-3.7741,-3.7797,-3.7801,-3.7865,-3.7903,-3.7953,-3.7984,-3.799,-3.8033,-3.8031,-3.8057,-3.8068,-3.8128,-3.8153,-3.8127,-3.8227,-3.8211,-3.8218,-3.8208,-3.8214,-3.8218,-3.821,-3.8122,0,0,0,0,0,-3.7747,-3.7791,-3.7838,-3.789,-3.7909,-3.7943,-3.797,-3.7984,-3.8024,-3.8041,-3.8074,-3.8114,-3.8159,-3.8188,-3.8233,-3.8298,-3.8309,-3.8325,-3.8329,-3.8333,-3.8338,-3.8374,-3.8381,-3.8303,-3.8303,-3.8303,0,0,-3.7761,-3.7798,-3.7823,-3.789,-3.7921,-3.7965,-3.7957,-3.8004,-3.8037,-3.8048,-3.8107,-3.8133,-3.8179,-3.8242,-3.8272,-3.8265,-3.8362,-3.8338,-3.834,-3.8343,-3.8378,-3.8386,-3.8392,-3.8306,-3.8305,-3.8305,0,0,-3.7809,-3.7841,-3.7887,-3.7919,-3.7967,-3.799,-3.8001,-3.8051,-3.8068,-3.8128,-3.8137,-3.8178,-3.8256,-3.8288,-3.8315,-3.8377,-3.8381,-3.8391,-3.8413,-3.8448,-3.8454,-3.8459,-3.848,-3.8488,-3.8396,-3.8396,-3.8396,0,-3.782,-3.7887,-3.791,-3.7957,-3.7986,-3.7999,-3.8046,-3.8076,-3.8136,-3.8156,-3.8148,-3.8246,-3.8278,-3.8349,-3.8364,-3.8386,-3.8399,-3.8384,-3.8451,-3.8457,-3.8462,-3.8483,-3.8491,-3.8397,-3.8397,-3.8397,-3.8397,0,-3.7898,-3.7944,-3.7976,-3.8033,-3.8066,-3.8113,-3.8144,-3.8174,-3.8186,-3.821,-3.8271,-3.8311,-3.8363,-3.8382,-3.8393,-3.8454,-3.8448,-3.8446,-3.843,-3.847,-3.8489,-3.8498,-3.8398,-3.8398,-3.8398,-3.8397,0,0,-3.7943,-3.8014,-3.8025,-3.8051,-3.8106,-3.8142,-3.819,-3.8241,-3.8267,-3.8309,-3.8349,-3.8416,-3.8413,-3.8444,-3.846,-3.8491,-3.8536,-3.8484,-3.8486,-3.8491,-3.8605,-3.8605,-3.8614,-3.8541,-3.8542,-3.8544,-3.8601,0,-3.7996,-3.808,-3.8104,-3.8176,-3.8218,-3.8232,-3.8274,-3.8312,-3.8337,-3.8377,-3.8404,-3.845,-3.8445,-3.8463,-3.8495,-3.8524,-3.8559,-3.8521,-3.8578,-3.858,-3.8564,-3.8625,-3.8625,-3.8677,-3.8609,-3.861,-3.8611,0,-3.8068,-3.811,-3.8186,-3.8235,-3.8254,-3.8291,-3.834,-3.8379,-3.8423,-3.8439,-3.8474,-3.8487,-3.8538,-3.8522,-3.8592,-3.8565,-3.8591,-3.8609,-3.8612,-3.8616,-3.8596,-3.8629,-3.8694,-3.8701,-3.8624,-3.8623,-3.8622,0,-3.8091,-3.8168,-3.8223,-3.8246,-3.8305,-3.8331,-3.8357,-3.8399,-3.8429,-3.8472,-3.8492,-3.8541,-3.8568,-3.8606,-3.8633,-3.8618,-3.8701,-3.8687,-3.8715,-3.8714,-3.873,-3.8728,-3.8798,-3.8749,-3.8749,-3.8749,-3.8749,0,-3.8146,-3.8192,-3.8235,-3.8268,-3.832,-3.8348,-3.8398,-3.8425,-3.8463,-3.8503,-3.8519,-3.8556,-3.859,-3.8632,-3.8654,-3.8708,-3.8721,-3.8735,-3.874,-3.8732,-3.873,-3.8747,-3.8744,-3.8751,-3.8751,-3.875,-3.875,0,-3.8181,-3.8211,-3.8272,-3.8324,-3.8338,-3.8373,-3.8418,-3.8451,-3.8477,-3.8527,-3.854,-3.858,-3.863,-3.8662,-3.8726,-3.874,-3.88,-3.8805,-3.8785,-3.8787,-3.8813,-3.8809,-3.8895,-3.8907,-3.8852,-3.8852,-3.8853,0,-3.8213,-3.8248,-3.8303,-3.8331,-3.8357,-3.8401,-3.8431,-3.846,-3.8491,-3.8545,-3.8572,-3.8623,-3.8665,-3.8745,-3.878,-3.8829,-3.8834,-3.8861,-3.8841,-3.8833,-3.8833,-3.8829,-3.8833,-3.8863,-3.8864,-3.8864,-3.8864,0,-3.8266,-3.8279,-3.8322,-3.837,-3.8406,-3.8445,-3.8485,-3.8507,-3.8543,-3.8577,-3.8628,-3.8661,-3.8726,-3.8777,-3.8829,-3.8857,-3.8867,-3.8871,-3.8879,-3.8871,-3.8857,-3.8864,-3.8792,-3.8868,-3.8867,-3.8867,-3.8867,-3.8867,-3.8299,-3.8331,-3.8374,-3.8422,-3.8455,-3.8491,-3.8525,-3.8555,-3.8598,-3.8653,-3.8668,-3.8722,-3.8766,-3.8838,-3.8867,-3.8909,-3.8906,-3.8919,-3.8922,-3.8924,-3.8924,-3.8852,-3.8919,-3.8919,-3.8919,-3.8919,-3.8919,0,-3.8351,-3.8381,-3.8424,-3.8478,-3.8516,-3.8522,-3.8567,-3.8597,-3.8644,-3.8684,-3.8726,-3.8785,-3.8834,-3.8874,-3.8925,-3.8952,-3.8958,-3.8964,-3.8961,-3.8968,-3.8925,-3.8911,-3.8959,-3.8959,-3.8958,-3.8958,-3.8958,-3.8958,-3.8383,-3.8437,-3.8456,-3.8527,-3.8556,-3.8608,-3.8633,-3.8667,-3.8699,-3.8764,-3.8805,-3.8831,-3.8871,-3.8926,-3.8972,-3.8982,-3.9,-3.9005,-3.9016,-3.8975,-3.8971,-3.8966,-3.8954,-3.9009,-3.9009,-3.9055,-3.9056,-3.9056]},{"header":{"parameterUnit":"m.s-1","parameterCategory":1,"la1":30.2991,"la2":30.254,"lo1":-89.0895,"lo2":-89.0444,"dy":0.0017,"dx":0.0017,"nx":28,"ny":28,"refTime":"2025-11-23T09:00:00:Z","depth":0,"parameterNumber":3,"parameterNumberName":"V-component_of_WINDS"},"data":[0,0,0,0,0,0,0,0,0,0,0,0,0,0,0,0,0,0,0,0,0,0,0,0,0,0,0,0,0,0,0,0,0,0,0,0,0,0,0,0,0,0,0,0,0,0,0,0,0,0,0,0,0,0,0,0,0,0,3.6947,3.6948,0,3.7016,3.7017,3.7018,3.6961,3.6958,3.6956,3.6954,3.7021,3.7025,3.7029,0,0,0,0,0,0,0,0,0,0,0,0,0,3.6762,3.6766,3.6947,3.6948,3.6949,3.7016,3.7017,3.7018,3.6961,3.6958,3.6955,3.6952,3.7019,3.7024,3.7029,0,0,0,0,0,0,0,0,0,0,0,0,0,3.6838,3.6767,3.6947,3.6929,3.6928,3.7016,3.7017,3.7018,3.6962,3.6958,3.6954,3.6951,3.7018,3.7024,3.703,3.7139,0,0,3.7048,3.7051,0,0,0,0,0,0,0,0,3.6834,3.6845,3.693,3.693,3.6929,3.6976,3.6977,3.7059,3.6963,3.6949,3.6953,3.6949,3.7009,3.7015,3.7036,3.7142,3.7145,3.7049,3.7052,3.7055,3.7057,0,0,0,0,0,0,0,3.6829,3.6842,3.6974,3.6932,3.6931,3.6916,3.6923,3.6992,3.6998,3.695,3.6946,3.6955,3.7008,3.703,3.7037,3.7146,3.7048,3.7054,3.7058,3.706,3.7346,3.735,0,0,0,0,0,0,3.6826,3.6838,3.6972,3.6976,3.6872,3.6922,3.693,3.6965,3.6997,3.6998,3.6958,3.6952,3.7022,3.703,3.7039,3.717,3.7055,3.7061,3.7064,3.7342,3.7347,3.7351,0,0,0,0,0,0,3.6822,3.6838,3.6969,3.6906,3.6922,3.6929,3.6969,3.6968,3.6991,3.7003,3.7004,3.698,3.7019,3.7031,3.7115,3.7172,3.7063,3.7069,3.7338,3.7344,3.7349,3.7432,0,0,0,0,0,0,3.6817,3.6837,3.688,3.6908,3.6925,3.7045,3.6972,3.6972,3.7002,3.6995,3.7024,3.7026,3.7017,3.7106,3.7121,3.7178,3.7073,3.7332,3.734,3.7347,3.7425,3.7441,3.7454,0,0,0,0,0,3.6811,3.6899,3.6882,3.6898,3.6978,3.7049,3.7059,3.7048,3.7006,3.7049,3.7057,3.7025,3.7163,3.7116,3.7132,3.7191,3.7329,3.7338,3.7347,3.7418,3.7437,3.7454,0,0,0,0,0,0,3.6876,3.6902,3.6884,3.6984,3.7015,3.7039,3.7091,3.7069,3.7111,3.7102,3.7086,3.7094,3.7183,3.7195,3.7142,3.7299,3.7239,3.7252,3.7288,3.7306,3.7321,3.7316,3.7078,0,0,0,0,0,3.6902,3.6958,3.6978,3.7064,3.7081,3.7084,3.7114,3.7104,3.7134,3.7146,3.716,3.7191,3.7241,3.7274,3.7321,3.7426,3.7432,3.7475,3.749,3.7502,3.7513,3.7571,3.759,3.7381,3.7381,3.7381,0,0,3.6956,3.6978,3.7014,3.7078,3.71,3.7158,3.7095,3.7158,3.7201,3.7155,3.7237,3.7248,3.7281,3.7376,3.7419,3.7389,3.7572,3.7513,3.7523,3.7527,3.7582,3.7602,3.7619,3.7387,3.7386,3.7385,0,0,3.7085,3.7107,3.7182,3.7207,3.7242,3.7244,3.7262,3.729,3.7297,3.7378,3.7346,3.7396,3.7482,3.7507,3.7531,3.7672,3.7644,3.7687,3.7764,3.782,3.7837,3.7851,3.7902,3.792,3.7698,3.7698,3.7698,0,3.7147,3.7234,3.7223,3.729,3.7319,3.7283,3.7359,3.7382,3.7431,3.7452,3.7418,3.7527,3.7546,3.7648,3.7683,3.7703,3.7723,3.7684,3.7836,3.785,3.7863,3.7912,3.7931,3.7703,3.7703,3.7702,3.7702,0,3.731,3.7371,3.7427,3.7477,3.7513,3.7583,3.7583,3.762,3.7607,3.7612,3.7696,3.7718,3.7769,3.7792,3.7779,3.7892,3.7873,3.7838,3.7777,3.7889,3.7934,3.7952,3.7711,3.7709,3.7707,3.7706,0,0,3.7481,3.7525,3.7546,3.7569,3.7607,3.7653,3.7722,3.7774,3.7806,3.7841,3.7899,3.7974,3.7943,3.797,3.7959,3.8009,3.812,3.7967,3.7968,3.7996,3.8247,3.8274,3.8295,3.8102,3.8105,3.8108,3.8244,0,3.7612,3.7734,3.7727,3.7841,3.7897,3.7864,3.7925,3.7954,3.7961,3.8009,3.8015,3.807,3.8023,3.804,3.8087,3.8096,3.817,3.8086,3.8155,3.8157,3.8148,3.8319,3.8347,3.8475,3.8262,3.8265,3.8267,0,3.7781,3.7824,3.7945,3.7975,3.7999,3.8053,3.8101,3.8147,3.818,3.8181,3.8213,3.8195,3.8264,3.8202,3.8298,3.8241,3.8269,3.8278,3.8282,3.8288,3.8219,3.833,3.8515,3.8535,3.8294,3.8292,3.829,0,3.7894,3.7982,3.8066,3.8087,3.8124,3.8164,3.8181,3.821,3.8242,3.8283,3.8304,3.8352,3.8379,3.8416,3.8411,3.8367,3.8509,3.8446,3.8512,3.8513,3.8544,3.8542,3.8737,3.8561,3.8561,3.856,3.856,0,3.8042,3.8117,3.8118,3.817,3.8254,3.8244,3.8327,3.8339,3.8366,3.8419,3.8393,3.8443,3.8433,3.8483,3.8479,3.856,3.8572,3.8575,3.8573,3.8578,3.8577,3.8596,3.8587,3.8565,3.8564,3.8563,3.8562,0,3.8183,3.8187,3.8276,3.8305,3.8314,3.8375,3.8399,3.8448,3.8453,3.8521,3.8536,3.8544,3.8602,3.8601,3.8665,3.8663,3.8762,3.8749,3.8752,3.8749,3.8816,3.881,3.9029,3.9058,3.8863,3.8865,3.8866,0,3.8277,3.8334,3.837,3.8405,3.8426,3.8481,3.8515,3.8507,3.8543,3.8585,3.8629,3.8685,3.8729,3.8823,3.8833,3.8883,3.8872,3.8946,3.8879,3.8883,3.8874,3.8871,3.8877,3.8959,3.8961,3.8963,3.8964,0,3.8444,3.8443,3.8493,3.8545,3.8586,3.8625,3.8661,3.8691,3.8688,3.8729,3.8789,3.8823,3.8891,3.8947,3.8995,3.9011,3.8988,3.8985,3.9003,3.9009,3.9008,3.901,3.8788,3.898,3.8979,3.8977,3.8977,3.8976,3.8565,3.8615,3.8649,3.8706,3.8733,3.8768,3.8816,3.8828,3.8878,3.8934,3.8926,3.8993,3.9024,3.9087,3.9108,3.916,3.9134,3.916,3.9167,3.9173,3.9181,3.9,3.9169,3.9168,3.9168,3.9167,3.9167,0,3.8731,3.8752,3.8804,3.8857,3.8902,3.8877,3.8917,3.8955,3.9015,3.9047,3.9092,3.9161,3.9215,3.9231,3.9284,3.9322,3.9313,3.9336,3.9333,3.9338,3.9201,3.9181,3.9343,3.9343,3.9343,3.9343,3.9343,3.9343,3.8823,3.8907,3.8911,3.9009,3.9028,3.9095,3.912,3.9152,3.9178,3.9257,3.9303,3.9313,3.9339,3.9393,3.9442,3.9445,3.9466,3.9494,3.9493,3.9365,3.9347,3.933,3.9311,3.9498,3.9499,3.9625,3.9627,3.9627]}]]